Orbital Elements at Epoch 2459200.5 (2020-Dec-17.0) TDB
Reference: JPL 36 (heliocentric ecliptic J2000)
Element | Value | Uncertainty (1-sigma) | Units |
e | .1727399778588215 | 3.9521e-08 | |
a | 2.515988425600998 | 7.1773e-09 | au |
q | 2.08137664066963 | 9.987e-08 | au |
i | 3.979825400938697 | 2.9829e-06 | deg |
node | 65.61742226563375 | 5.6315e-05 | deg |
peri | 327.4286327102132 | 5.6952e-05 | deg |
M | 357.153972987383 | 9.1158e-06 | deg |
tp | 2459212.023858108033 (2020-Dec-28.52385811) | 3.6911e-05 | TDB |
period | 1457.677281522729 3.99 | 6.2374e-06 1.708e-08 | d yr |
n | .2469682450040892 | 1.0568e-09 | deg/d |
Q | 2.950600210532365 | 8.4171e-09 | au |
|
| | Orbit Determination Parameters
Additional Information
|